www.pogodaiklimat.ru

Погода и климат >> Архив погоды >> Мозамбик >> Beira


ПОГОДА в Beira

  • Прогноз погоды в Beira
  • Монитор погоды в Beira
  • Климат города

АРХИВ ПОГОДЫ в Beira

Время (UTC), дата Ветер
(напр.,м/с)
 
Видим.   Явления Облачность Т
(С)
Тd
(С)
f
(%)
Тe
(С)
Тes
(С)
Комфортность P
(гПа)
Po
(гПа)
Тmin
(С)
Tmax
(С)
R
(мм)
S
(см)
03 19.03 0 15 км 9/9 300 м
[Cu Sc]
+27.1 +25.5 91 1016.6 1017.0
06 19.03 0 15 км в посл. час морось 9/9 300 м
[Cu Sc]
+27.2 +25.5 90 1018.0 1018.0 +24.5 7
09 19.03 0 15 км {морось} 8/8 300 м
[Cu Sc]
+28.4 +26.4 89 1018.0 1018.0
12 19.03 0 15 км 8/8 300 м
[Cu Sc Ci fib]
+27.8 +25.5 87 1016.7 1017.0 2
15 19.03 0 15 км 6/5 300 м
[Cu Sc Ac trans Ci fib]
+27.2 +24.3 84 1016.4 1016.0
09 20.03 0 15 км 8/8 300 м
[Cu Sc]
+27.2 +25.6 91 1015.7 1016.0
12 20.03 0 4000 м слабая морось 10/10 200 м
[Cu Sc]
+26.2 +25.8 98 1013.6 1014.0 15
18 20.03 0 9000 м слабая морось 10/10 300 м
[Cb cap]
+26.3 +24.7 91 1016.2 1016.0 +28.1 24
03 21.03 0 5000 м слабая морось 10/10 300 м
[Cu Sc]
+24.2 +23.9 98 1015.3 1015.0
06 21.03 0 5000 м слабый дождь {морось} 10/10 300 м
[Cu Sc]
+24.8 +24.6 99 1016.2 1016.0 +23.7 69
09 21.03 0 15 км {дождь, морось} 10/10 300 м
[Cu Sc]
+27.0 +25.7 93 1015.3 1015.0
12 21.03 0 10 км в посл. час ливневой дождь 10/10 300 м
[Cb cap]
+26.4 +25.7 96 1013.0 1013.0 0.1
21 21.03 0 15 км 6/6 300 м
[Cu Sc]
+27.0 +24.5 86 1014.9 1015.0
06 22.03 0 9000 м слабая морось 9/9 300 м
[Cu Sc]
+26.6 +25.8 95 1014.7 1015.0 +25.5 2
09 22.03 0 15 км {морось} 6/6 300 м
[Cu med, cong]
+28.6 +26.4 88 1014.7 1015.0
12 22.03 0 20 км {морось} 8/8 300 м
[Cu Sc]
+28.4 +26.5 89 1012.7 1013.0 2
15 22.03 0 20 км {морось} 8/8 300 м
[Cu Sc]
+28.4 +26.5 89 1012.7 1013.0 2
18 22.03 0 15 км 6/6 300 м
[Cu Sc]
+27.4 +25.5 89 1013.7 1014.0 +29.8 2
21 22.03 0 15 км 6/6 300 м
[Cu Sc]
+27.0 +25.5 92 1014.1 1014.0
00 23.03 0 15 км 5/5 300 м
[Cu Sc]
+26.4 +24.7 90 1012.4 1012.0
03 23.03 0 15 км 4/4 300 м
[Cu Sc]
+26.4 +24.5 89 1012.5 1013.0
06 23.03 0 9000 м слабая морось 9/9 300 м
[Cu Sc]
+25.8 +24.9 95 1014.6 1015.0 +25.8 2
12 23.03 0 20 км 5/5 300 м
[Cu Sc Ac trans]
+29.4 +26.3 83 1011.7 1012.0 1
15 23.03 0 15 км 6/6 300 м
[Cb cap]
+28.0 +25.3 85 1010.5 1011.0
18 23.03 0 15 км 3/3 300 м
[Cu med, cong]
+27.4 +25.4 89 1012.4 1012.0 +29.4 1
03 24.03 0 15 км 5/5 300 м
[Cu Sc]
+24.9 +23.6 92 1011.8 1012.0
06 24.03 0 15 км 3/3 300 м
[Cu Sc]
+25.7 +23.4 87 1012.7 1013.0 +24.8 1
09 24.03 0 15 км 4/4 300 м
[Cu med, cong]
+29.4 +25.0 77 1012.1 1012.0
21 24.03 0 15 км 4/4 600 м
[Cb cap]
+27.6 +25.5 88 1011.9 1012.0
00 25.03 0 15 км 4/4 600 м
[Cb cap]
+27.6 +25.5 88 1011.9 1012.0
03 25.03 0 15 км 1/1 600 м
[Cu med, cong]
+26.2 +25.8 98 1010.7 1011.0
06 25.03 0 2500 м 6/6 300 м
[Cu Sc]
+27.8 +25.5 87 1013.0 1013.0 +26.0
09 25.03 0 15 км в посл. час ливневой дождь 6/6 300 м
[Cu Sc]
+26.8 +24.6 88 1013.2 1013.0
12 25.03 0 25 км 6/5 300 м
[Cu Sc Ac trans Ci fib]
+29.9 +24.8 74 1010.4 1010.0 14
15 25.03 0 25 км 6/4 300 м
[Cu Sc Ac trans Ci fib]
+29.0 +25.1 80 1010.9 1011.0
18 25.03 0 25 км 6/4 300 м
[Cu Sc Ci sp]
+28.0 +25.2 85 1013.3 1013.0 +30.8 14
21 25.03 0 15 км {морось} 6/6 300 м
[Cu Sc]
+24.6 +22.4 88 1014.6 1015.0

 

Местоположение метеостанции Beira (Мозамбик): широта -19.80 долгота 34.90 высота над уровнем моря 16 м.

В архиве по умолчанию представлена погода в Beira за последнюю неделю. Архивные данные за месяц целиком и за предыдущие месяцы, начиная с января 2011 года, Вы можете получить, выбрав интересующий диапазон дат из раскрывающегося списка и нажав кнопку "Ввод!".

Внимание! Время в таблицах - всемирное. Для получения местного времени необходимо прибавить поправку, которая в Beira равна 2 ч.

Смотрите также архив погоды в соседних городах и на ближайших метеорологических станциях:

Погода в Chimoio (Мозамбик) (168 км)
Погода в Caia (Мозамбик) (224 км)
Погода в Chipinge (Зимбабве) (243 км)
Погода в Mukandi (Зимбабве) (246 км)
Погода в Vilanculos (Мозамбик) (249 км)
Погода в Catandica (Мозамбик) (265 км)
Погода в Massangena (Мозамбик) (280 км)
Погода в Wyanga (Зимбабве) (282 км)
Погода в Quelimane (Мозамбик) (298 км)
Погода в Rusape (Зимбабве) (323 км)

Пояснения к столбцам:

Ветер - указаны скорость ветра в м/с - средняя за 10 мин, порывы в срок и между сроками (в фигурных скобках) и направление, откуда дует ветер: С - северный, СВ - северо-восточный, В - восточный, ЮВ - юго-восточный, Ю - южный, ЮЗ - юго-западный, З - западный, СЗ - северо-западный.
Видимость - горизонтальная дальность видимости в метрах или километрах. При видимости от 1 до 10 км при отсутствии осадков обычно наблюдается дымка, при ухудшении видимости до 1 км и менее - туман. В сухую погоду видимость может ухудшаться дымом, пылью или мглою.
Явления - указаны атмосферные явления, наблюдавшиеся в срок или в последний час перед сроком; фигурными скобками обозначены явления, наблюдавшиеся между сроками (за 1-3 часа до срока); квадратными скобками обозначены град или гололедные отложения с указанием их диаметра в мм.
Облачность - указаны через наклонную черту общая и нижняя облачность в баллах и высота нижней границы облаков в метрах; квадратными скобками обозначены формы облаков: Ci - перистые, Cs - перисто-слоистые, Cc - перисто-кучевые, Ac - высококучевые, As - высокослоистые, Sc - слоисто-кучевые, Ns - слоисто-дождевые, Cu - кучевые, Cb - кучево-дождевые. Подробнее классификацию облаков см. в Атласе облаков (PDF).
T - Температура воздуха - температура, измеренная на высоте 2 м над землей.
Td - Температура точки росы - температура, при понижении до которой содержащийся в воздухе водяной пар достигнет насыщения.
f - Относительная влажность воздуха - влажноcть воздуха, измеренная на высоте 2 м над землей.
Te - Эффективная температура - температура, которую ощущает одетый по сезону человек в тени. Характеристика душности погоды. При расчете учитывается влияние влажности воздуха и скорости ветра на теплоощущения человека.
Tes - Эффективная температура на солнце - температура, которую ощущает человек, с поправкой на солнечный нагрев. Характеристика знойности погоды. Зависит от высоты солнца над горизонтом, облачности и скорости ветра. Ночью, в пасмурную погоду, а также при ветре 12 м/с и более поправка равна нулю.
P - Атмосферное давление - приведенное к уровню моря атмосферное давление.
Po - Атмосферное давление - измеренное на уровне метеостанции атмосферное давление.
Tmin - Минимальная температура - минимум температуры воздуха на высоте 2 м над землей.
Tmax - Максимальная температура - максимум температуры воздуха на высоте 2 м над землей.
R - Количество осадков - Количество выпавших осадков, мм. При наведении курсора мыши на число - период времени, за который выпало указанное количество осадков.
S - Снежный покров - Высота снежного покрова, см. При наведении курсора мыши на число - состояние снежного покрова и степень покрытия местности в баллах.